This is the latest recevied weather packets stored in our database for station/object N1ORT. If no packets are shown the sender has not sent any weather packets the latest 10 day(s).
| Time | Temp. | Humidity | Pressure | Rain* | Wind** | Luminosity | Snow |
|---|---|---|---|---|---|---|---|
| 1788445874 | 17.78° C | 99% | 1012.8 hPa | 0 mm | - | 118 W/m² | - |
| 1788445569 | 17.22° C | 99% | 1012.9 hPa | 0 mm | - | 115 W/m² | - |
| 1788445266 | 17.78° C | 99% | 1013.2 hPa | 0 mm | - | 86 W/m² | - |
| 1788444961 | 17.78° C | 99% | 1013.3 hPa | 0 mm | - | 78 W/m² | - |
| 1788444656 | 17.78° C | 99% | 1013.6 hPa | 0 mm | - | 82 W/m² | - |
| 1788444352 | 17.78° C | 99% | 1013.4 hPa | 0 mm | - | 95 W/m² | - |
| 1788444047 | 17.78° C | 99% | 1013.1 hPa | 0 mm | - | 99 W/m² | - |
| 1788443742 | 17.78° C | 99% | 1013.3 hPa | 0 mm | - | 104 W/m² | - |
| 1788443437 | 17.78° C | 99% | 1013.4 hPa | 0 mm | - | 94 W/m² | - |
| 1788443136 | 17.78° C | 99% | 1013.4 hPa | 0 mm | - | 113 W/m² | - |
| 1788442833 | 17.22° C | 99% | 1013.2 hPa | 0 mm | - | 100 W/m² | - |
| 1788442530 | 17.22° C | 99% | 1013.3 hPa | 0 mm | - | 119 W/m² | - |
| 1788442225 | 17.22° C | 99% | 1013.2 hPa | 0 mm | - | 99 W/m² | - |
| 1788441920 | 17.22° C | 99% | 1013.3 hPa | 0 mm | - | 94 W/m² | - |
| 1788441615 | 17.22° C | 99% | 1013.1 hPa | 0 mm | - | 91 W/m² | - |
| 1788441310 | 17.22° C | 99% | 1013.2 hPa | 0 mm | - | 112 W/m² | - |
| 1788441009 | 17.22° C | 99% | 1013.3 hPa | 0 mm | - | 77 W/m² | - |
| 1788440704 | 17.22° C | 99% | 1013.3 hPa | 0 mm | - | 64 W/m² | - |
| 1788440403 | 17.22° C | 99% | 1013.4 hPa | 0 mm | - | 101 W/m² | - |
| 1788440102 | 16.67° C | 99% | 1013.4 hPa | 0 mm | - | 86 W/m² | - |
| 1788439797 | 17.22° C | 99% | 1013.4 hPa | 0 mm | - | 67 W/m² | - |
| 1788439492 | 17.22° C | 99% | 1013.5 hPa | 0 mm | - | 65 W/m² | - |
| 1788439191 | 16.67° C | 99% | 1013.8 hPa | 0 mm | - | 74 W/m² | - |
| 1788438886 | 16.67° C | 99% | 1013.6 hPa | 0 mm | - | 79 W/m² | - |
| 1788438585 | 16.67° C | 99% | 1013.7 hPa | 0 mm | - | 68 W/m² | - |
* Rain latest hour (hover to see other rain measurements)
** Current wind speed in m/s (hover to see current wind gust speed)